Time,TemperatureF,DewpointF,PressureIn,WindDirection,WindDirectionDegrees,WindSpeedMPH,WindSpeedGustMPH,Humidity,HourlyPrecipIn,Conditions,Clouds,dailyrainin,SoftwareType,DateUTC
2013-05-18 00:07:00,55.1,46.0,30.02,North,359,0.0,-999.0,71,-99.99,,,0.00,weatherlink.com 1.10,2013-05-18 04:07:00,
2013-05-18 00:22:00,54.7,46.0,30.02,North,359,0.0,-999.0,73,-99.99,,,0.00,weatherlink.com 1.10,2013-05-18 04:22:00,
2013-05-18 00:37:00,54.2,46.0,30.03,North,359,0.0,-999.0,73,-99.99,,,0.00,weatherlink.com 1.10,2013-05-18 04:37:00,
2013-05-18 00:52:00,54.2,45.0,30.03,East,83,1.0,-999.0,71,-99.99,,,0.00,weatherlink.com 1.10,2013-05-18 04:52:00,
2013-05-18 01:07:00,55.3,44.0,30.02,ENE,68,0.0,-999.0,67,-99.99,,,0.00,weatherlink.com 1.10,2013-05-18 05:07:00,
2013-05-18 01:22:00,55.7,44.0,30.02,ENE,71,0.0,-999.0,66,-99.99,,,0.00,weatherlink.com 1.10,2013-05-18 05:22:00,
2013-05-18 01:37:00,55.6,45.0,30.02,ENE,71,0.0,-999.0,67,-99.99,,,0.00,weatherlink.com 1.10,2013-05-18 05:37:00,
2013-05-18 01:52:00,55.1,45.0,30.02,ENE,71,0.0,-999.0,68,-99.99,,,0.00,weatherlink.com 1.10,2013-05-18 05:52:00,
2013-05-18 02:07:00,54.8,46.0,30.01,ENE,71,0.0,-999.0,72,-99.99,,,0.00,weatherlink.com 1.10,2013-05-18 06:07:00,
2013-05-18 02:22:00,54.5,46.0,30.02,ENE,71,0.0,-999.0,72,-99.99,,,0.00,weatherlink.com 1.10,2013-05-18 06:22:00,
2013-05-18 02:37:00,54.5,46.0,30.02,ENE,71,0.0,-999.0,72,-99.99,,,0.00,weatherlink.com 1.10,2013-05-18 06:37:00,
2013-05-18 02:52:00,54.5,46.0,30.01,ENE,71,0.0,-999.0,73,-99.99,,,0.00,weatherlink.com 1.10,2013-05-18 06:52:00,
2013-05-18 03:07:00,54.4,45.0,30.01,ENE,71,0.0,-999.0,71,-99.99,,,0.00,weatherlink.com 1.10,2013-05-18 07:07:00,
2013-05-18 03:22:00,55.0,43.0,30.01,ESE,106,0.0,-999.0,64,-99.99,,,0.00,weatherlink.com 1.10,2013-05-18 07:22:00,
2013-05-18 03:37:00,55.7,42.0,30.00,East,83,0.0,-999.0,61,-99.99,,,0.00,weatherlink.com 1.10,2013-05-18 07:37:00,
2013-05-18 03:52:00,55.9,42.0,30.00,East,99,0.0,-999.0,61,-99.99,,,0.00,weatherlink.com 1.10,2013-05-18 07:52:00,
2013-05-18 04:07:00,55.7,43.0,30.00,East,86,0.0,-999.0,62,-99.99,,,0.00,weatherlink.com 1.10,2013-05-18 08:07:00,
2013-05-18 04:22:00,55.4,43.0,30.00,East,88,0.0,-999.0,63,-99.99,,,0.00,weatherlink.com 1.10,2013-05-18 08:22:00,
2013-05-18 04:37:00,55.3,42.0,30.00,East,92,0.0,-999.0,62,-99.99,,,0.00,weatherlink.com 1.10,2013-05-18 08:37:00,
2013-05-18 04:52:00,55.6,42.0,30.00,ESE,102,0.0,-999.0,60,-99.99,,,0.00,weatherlink.com 1.10,2013-05-18 08:52:00,
2013-05-18 05:07:00,55.9,41.0,30.00,NE,55,0.0,-999.0,57,-99.99,,,0.00,weatherlink.com 1.10,2013-05-18 09:07:00,
2013-05-18 05:22:00,56.2,41.0,29.99,East,79,0.0,-999.0,58,-99.99,,,0.00,weatherlink.com 1.10,2013-05-18 09:22:00,
2013-05-18 05:37:00,56.0,41.0,30.00,ESE,106,0.0,-999.0,58,-99.99,,,0.00,weatherlink.com 1.10,2013-05-18 09:37:00,
2013-05-18 05:52:00,56.0,41.0,30.00,ESE,110,0.0,-999.0,58,-99.99,,,0.00,weatherlink.com 1.10,2013-05-18 09:52:00,
2013-05-18 06:07:00,56.0,41.0,30.01,ENE,64,0.0,-999.0,57,-99.99,,,0.00,weatherlink.com 1.10,2013-05-18 10:07:00,
2013-05-18 06:22:00,56.2,40.0,30.01,NE,52,0.0,-999.0,56,-99.99,,,0.00,weatherlink.com 1.10,2013-05-18 10:22:00,
2013-05-18 06:37:00,56.5,40.0,30.01,NNE,28,0.0,-999.0,55,-99.99,,,0.00,weatherlink.com 1.10,2013-05-18 10:37:00,
2013-05-18 06:52:00,56.6,40.0,30.02,ESE,119,0.0,-999.0,55,-99.99,,,0.00,weatherlink.com 1.10,2013-05-18 10:52:00,
2013-05-18 07:07:00,56.6,41.0,30.02,ESE,114,0.0,-999.0,57,-99.99,,,0.00,weatherlink.com 1.10,2013-05-18 11:07:00,
2013-05-18 07:22:00,56.6,41.0,30.03,ESE,119,0.0,-999.0,57,-99.99,,,0.00,weatherlink.com 1.10,2013-05-18 11:22:00,
2013-05-18 07:37:00,56.7,42.0,30.04,ESE,119,0.0,-999.0,59,-99.99,,,0.00,weatherlink.com 1.10,2013-05-18 11:37:00,
2013-05-18 07:52:00,57.0,43.0,30.04,ENE,62,0.0,-999.0,60,-99.99,,,0.00,weatherlink.com 1.10,2013-05-18 11:52:00,
2013-05-18 08:07:00,57.3,44.0,30.05,ENE,72,0.0,-999.0,61,-99.99,,,0.00,weatherlink.com 1.10,2013-05-18 12:07:00,
2013-05-18 08:22:00,57.6,44.0,30.06,ENE,72,0.0,-999.0,60,-99.99,,,0.00,weatherlink.com 1.10,2013-05-18 12:22:00,
2013-05-18 08:37:00,58.3,44.0,30.06,East,93,0.0,-999.0,59,-99.99,,,0.00,weatherlink.com 1.10,2013-05-18 12:37:00,
2013-05-18 08:52:00,58.9,43.0,30.06,East,99,0.0,-999.0,57,-99.99,,,0.00,weatherlink.com 1.10,2013-05-18 12:52:00,
2013-05-18 09:07:00,59.5,43.0,30.06,NNE,31,0.0,-999.0,54,-99.99,,,0.00,weatherlink.com 1.10,2013-05-18 13:07:00,
2013-05-18 09:22:00,59.9,43.0,30.06,SE,138,0.0,-999.0,53,-99.99,,,0.00,weatherlink.com 1.10,2013-05-18 13:22:00,
2013-05-18 09:37:00,60.7,43.0,30.06,ESE,103,2.0,-999.0,52,-99.99,,,0.00,weatherlink.com 1.10,2013-05-18 13:37:00,
2013-05-18 09:52:00,62.1,45.0,30.05,ENE,65,0.0,-999.0,53,-99.99,,,0.00,weatherlink.com 1.10,2013-05-18 13:52:00,
2013-05-18 10:07:00,63.7,45.0,30.04,ENE,76,0.0,-999.0,50,-99.99,,,0.00,weatherlink.com 1.10,2013-05-18 14:07:00,
2013-05-18 10:22:00,65.0,47.0,30.04,East,85,0.0,-999.0,53,-99.99,,,0.00,weatherlink.com 1.10,2013-05-18 14:22:00,
2013-05-18 10:37:00,66.3,46.0,30.03,ESE,109,0.0,-999.0,48,-99.99,,,0.00,weatherlink.com 1.10,2013-05-18 14:37:00,
2013-05-18 10:52:00,67.4,48.0,30.03,East,93,0.0,-999.0,50,-99.99,,,0.00,weatherlink.com 1.10,2013-05-18 14:52:00,
2013-05-18 11:07:00,68.9,48.0,30.02,ENE,58,0.0,-999.0,47,-99.99,,,0.00,weatherlink.com 1.10,2013-05-18 15:07:00,
2013-05-18 11:22:00,69.9,48.0,30.02,East,89,0.0,-999.0,46,-99.99,,,0.00,weatherlink.com 1.10,2013-05-18 15:22:00,
2013-05-18 11:37:00,70.6,49.0,30.02,East,88,0.0,-999.0,46,-99.99,,,0.00,weatherlink.com 1.10,2013-05-18 15:37:00,
2013-05-18 11:52:00,71.6,51.0,30.02,NNW,335,0.0,-999.0,49,-99.99,,,0.00,weatherlink.com 1.10,2013-05-18 15:52:00,
2013-05-18 12:07:00,72.5,54.0,30.02,NNW,333,0.0,-999.0,53,-99.99,,,0.00,weatherlink.com 1.10,2013-05-18 16:07:00,
2013-05-18 12:22:00,72.8,50.0,30.02,East,80,0.0,-999.0,44,-99.99,,,0.00,weatherlink.com 1.10,2013-05-18 16:22:00,
2013-05-18 12:37:00,73.2,49.0,30.01,East,80,0.0,-999.0,43,-99.99,,,0.00,weatherlink.com 1.10,2013-05-18 16:37:00,
2013-05-18 12:52:00,73.9,51.0,30.01,East,80,0.0,-999.0,44,-99.99,,,0.00,weatherlink.com 1.10,2013-05-18 16:52:00,
2013-05-18 13:07:00,75.4,51.0,30.00,WNW,284,0.0,-999.0,42,-99.99,,,0.00,weatherlink.com 1.10,2013-05-18 17:07:00,
2013-05-18 13:22:00,75.8,53.0,29.99,WNW,287,0.0,-999.0,45,-99.99,,,0.00,weatherlink.com 1.10,2013-05-18 17:22:00,
2013-05-18 13:37:00,75.6,49.0,29.99,ENE,75,0.0,-999.0,39,-99.99,,,0.00,weatherlink.com 1.10,2013-05-18 17:37:00,
2013-05-18 13:52:00,76.8,49.0,29.99,ENE,61,2.0,-999.0,37,-99.99,,,0.00,weatherlink.com 1.10,2013-05-18 17:52:00,
2013-05-18 14:07:00,78.1,46.0,29.99,SE,134,0.0,-999.0,32,-99.99,,,0.00,weatherlink.com 1.10,2013-05-18 18:07:00,
2013-05-18 14:22:00,79.2,48.0,29.98,NW,309,0.0,-999.0,33,-99.99,,,0.00,weatherlink.com 1.10,2013-05-18 18:22:00,
2013-05-18 14:37:00,80.1,50.0,29.97,NNE,21,0.0,-999.0,35,-99.99,,,0.00,weatherlink.com 1.10,2013-05-18 18:37:00,
2013-05-18 14:52:00,79.9,47.0,29.96,ENE,78,0.0,-999.0,31,-99.99,,,0.00,weatherlink.com 1.10,2013-05-18 18:52:00,
2013-05-18 15:07:00,80.1,50.0,29.96,ENE,69,0.0,-999.0,35,-99.99,,,0.00,weatherlink.com 1.10,2013-05-18 19:07:00,
2013-05-18 15:22:00,80.1,44.0,29.96,ESE,117,0.0,-999.0,28,-99.99,,,0.00,weatherlink.com 1.10,2013-05-18 19:22:00,
2013-05-18 15:37:00,79.0,46.0,29.95,SSE,161,3.0,-999.0,31,-99.99,,,0.00,weatherlink.com 1.10,2013-05-18 19:37:00,
2013-05-18 15:52:00,80.7,47.0,29.95,SE,126,4.0,-999.0,30,-99.99,,,0.00,weatherlink.com 1.10,2013-05-18 19:52:00,
2013-05-18 16:07:00,81.2,46.0,29.94,SW,224,0.0,-999.0,29,-99.99,,,0.00,weatherlink.com 1.10,2013-05-18 20:07:00,
2013-05-18 16:22:00,82.8,45.0,29.94,North,0,0.0,-999.0,26,-99.99,,,0.00,weatherlink.com 1.10,2013-05-18 20:22:00,
2013-05-18 16:37:00,81.6,48.0,29.93,ENE,66,0.0,-999.0,31,-99.99,,,0.00,weatherlink.com 1.10,2013-05-18 20:37:00,
2013-05-18 16:52:00,81.4,45.0,29.93,North,350,0.0,-999.0,28,-99.99,,,0.00,weatherlink.com 1.10,2013-05-18 20:52:00,
2013-05-18 17:07:00,82.0,45.0,29.93,North,353,0.0,-999.0,27,-99.99,,,0.00,weatherlink.com 1.10,2013-05-18 21:07:00,
2013-05-18 17:22:00,82.4,44.0,29.93,East,90,0.0,-999.0,26,-99.99,,,0.00,weatherlink.com 1.10,2013-05-18 21:22:00,
2013-05-18 17:37:00,81.8,45.0,29.93,NNW,340,1.0,-999.0,27,-99.99,,,0.00,weatherlink.com 1.10,2013-05-18 21:37:00,
2013-05-18 17:52:00,81.8,45.0,29.92,NNW,342,0.0,-999.0,27,-99.99,,,0.00,weatherlink.com 1.10,2013-05-18 21:52:00,
2013-05-18 18:07:00,82.8,46.0,29.92,NNW,342,0.0,-999.0,28,-99.99,,,0.00,weatherlink.com 1.10,2013-05-18 22:07:00,
2013-05-18 18:22:00,82.2,46.0,29.92,ENE,66,0.0,-999.0,28,-99.99,,,0.00,weatherlink.com 1.10,2013-05-18 22:22:00,
2013-05-18 18:37:00,80.3,48.0,29.92,NNW,343,5.0,-999.0,32,-99.99,,,0.00,weatherlink.com 1.10,2013-05-18 22:37:00,
2013-05-18 18:52:00,79.2,46.0,29.92,North,0,0.0,-999.0,31,-99.99,,,0.00,weatherlink.com 1.10,2013-05-18 22:52:00,
2013-05-18 19:07:00,78.1,47.0,29.92,ENE,72,0.0,-999.0,34,-99.99,,,0.00,weatherlink.com 1.10,2013-05-18 23:07:00,
2013-05-18 19:22:00,76.8,47.0,29.92,NE,47,0.0,-999.0,35,-99.99,,,0.00,weatherlink.com 1.10,2013-05-18 23:22:00,
2013-05-18 19:37:00,75.8,47.0,29.92,ENE,69,0.0,-999.0,36,-99.99,,,0.00,weatherlink.com 1.10,2013-05-18 23:37:00,
2013-05-18 19:52:00,74.6,47.0,29.93,ENE,69,0.0,-999.0,38,-99.99,,,0.00,weatherlink.com 1.10,2013-05-18 23:52:00,
2013-05-18 20:07:00,73.3,51.0,29.93,NW,325,0.0,-999.0,45,-99.99,,,0.00,weatherlink.com 1.10,2013-05-19 00:07:00,
2013-05-18 20:22:00,72.0,53.0,29.94,NW,325,0.0,-999.0,51,-99.99,,,0.00,weatherlink.com 1.10,2013-05-19 00:22:00,
2013-05-18 20:37:00,69.9,53.0,29.94,NW,325,0.0,-999.0,55,-99.99,,,0.00,weatherlink.com 1.10,2013-05-19 00:37:00,
2013-05-18 20:52:00,68.1,52.0,29.94,NW,325,0.0,-999.0,57,-99.99,,,0.00,weatherlink.com 1.10,2013-05-19 00:52:00,
2013-05-18 21:07:00,66.8,52.0,29.94,ENE,65,0.0,-999.0,60,-99.99,,,0.00,weatherlink.com 1.10,2013-05-19 01:07:00,
2013-05-18 21:22:00,65.8,52.0,29.95,ENE,66,0.0,-999.0,61,-99.99,,,0.00,weatherlink.com 1.10,2013-05-19 01:22:00,
2013-05-18 21:37:00,65.2,51.0,29.95,ENE,61,0.0,-999.0,60,-99.99,,,0.00,weatherlink.com 1.10,2013-05-19 01:37:00,
2013-05-18 21:52:00,64.7,51.0,29.96,ESE,112,0.0,-999.0,61,-99.99,,,0.00,weatherlink.com 1.10,2013-05-19 01:52:00,
2013-05-18 22:07:00,64.3,50.0,29.96,East,85,0.0,-999.0,60,-99.99,,,0.00,weatherlink.com 1.10,2013-05-19 02:07:00,
2013-05-18 22:22:00,64.3,50.0,29.96,East,90,0.0,-999.0,61,-99.99,,,0.00,weatherlink.com 1.10,2013-05-19 02:22:00,
2013-05-18 22:37:00,63.5,51.0,29.97,East,90,0.0,-999.0,63,-99.99,,,0.00,weatherlink.com 1.10,2013-05-19 02:37:00,
2013-05-18 22:52:00,62.6,51.0,29.98,East,83,0.0,-999.0,66,-99.99,,,0.00,weatherlink.com 1.10,2013-05-19 02:52:00,
2013-05-18 23:07:00,63.1,53.0,29.96,East,100,0.0,-999.0,70,-99.99,,,0.00,weatherlink.com 1.10,2013-05-19 03:07:00,
2013-05-18 23:22:00,63.4,54.0,29.96,ENE,66,0.0,-999.0,72,-99.99,,,0.00,weatherlink.com 1.10,2013-05-19 03:22:00,
2013-05-18 23:37:00,63.4,55.0,29.96,ESE,104,0.0,-999.0,74,-99.99,,,0.00,weatherlink.com 1.10,2013-05-19 03:37:00,
2013-05-18 23:52:00,63.4,55.0,29.95,East,99,0.0,-999.0,75,-99.99,,,0.00,weatherlink.com 1.10,2013-05-19 03:52:00,